This demonstration page uses our WeatherBlox Daily Observations layout. Learn more.

Left ArrowRight Arrow

Hourly Observations for August 2, 2015

Temp ( °F °C ) Dew Point ( °F °C ) Humidity (%) Winds ( mph kmh ) Pressure ( in mb ) Visibility ( mi km ) Precip ( " mm )
12:53 am 00:53 Clear 82 27.8 62 16.7 51 51 ESE 5 7 29.85 1011 10 16 0.00 0.00
1:53 am 01:53 Clear 81 27.2 62 16.7 53 53 SSE 6 9 29.85 1011 10 16 0.00 0.00
2:53 am 02:53 Clear 81 27.2 61 16.1 51 51 WSW 3 6 29.86 1011 10 16 0.00 0.00
3:53 am 03:53 Clear 80 26.7 59 15 49 49 WSW 3 6 29.86 1011 10 16 0.00 0.00
4:27 am 04:27 Partly Cloudy with Nearby Thunderstorms 77 25 62 16.7 60 60 NNW 5 7 29.88 1012 10 16 0.00 0.03
4:42 am 04:42 Mostly Clear 75 24 64 18 69 69 NNW 6 9 29.85 1011 10 16 0.00 0.00
4:53 am 04:53 Mostly Clear 77 25 63 17.2 62 62 N 3 6 29.84 1010 10 16 0.00 0.03
5:53 am 05:53 Clear 75 23.9 64 17.8 69 69 SSE 10 17 29.83 1010 10 16 0.00 0.00
6:53 am 06:53 Sunny 75 23.9 58 14.4 55 55 SSE 6 9 29.85 1011 10 16 0.00 0.00
7:53 am 07:53 Sunny 75 24 57 14 54 54 undefined N/A N/A 2 3 0.00 0.00
8:53 am 08:53 Sunny 77 25 55 12.8 47 47 WSW 3 6 29.88 1012 10 16 0.00 0.00
9:42 am 09:42 Sunny with Nearby Thunderstorms 77 25 54 12 44 44 Calm 29.91 1013 10 16 0.00 0.00
9:53 am 09:53 Sunny 77 25 53 11.7 43 43 SE 5 7 29.89 1012 10 16 0.00 0.00
10:53 am 10:53 Mostly Sunny 77 25 52 11.1 42 42 SE 5 7 29.89 1012 10 16 0.00 0.00
11:53 am 11:53 Sunny 77 25 55 12.8 47 47 SSE 5 7 29.89 1012 10 16 0.00 0.00
12:53 pm 12:53 Sunny 83 28.3 55 12.8 38 38 Calm 29.87 1012 10 16 0.00 0.00
1:53 pm 13:53 Sunny 89 31.7 56 13.3 33 33 N 5 7 29.85 1011 10 16 0.00 0.00
2:53 pm 14:53 Sunny 90 32.2 57 13.9 33 33 WSW 7 11 29.82 1010 10 16 0.00 0.00
3:53 pm 15:53 Sunny 93 33.9 56 13.3 29 29 W 6 9 29.80 1009 10 16 0.00 0.00
4:53 pm 16:53 Sunny 94 34.4 53 11.7 25 25 VRB 3 6 29.78 1008 10 16 0.00 0.00
5:53 pm 17:53 Sunny 94 34.4 53 11.7 25 25 VRB 5 7 29.76 1008 10 16 0.00 0.00
6:53 pm 18:53 Sunny 95 35 54 12.2 25 25 Calm 29.75 1008 10 16 0.00 0.00
7:53 pm 19:53 Sunny 92 33.3 55 12.8 29 29 SSE 8 13 29.76 1008 8 13 0.00 0.00
8:53 pm 20:53 Clear 87 30.6 57 13.9 36 36 SSE 6 9 29.77 1008 9 14 0.00 0.00
9:53 pm 21:53 Clear 86 30 58 14.4 39 39 S 5 7 29.79 1009 8 13 0.00 0.00
10:53 pm 22:53 Clear 81 27.2 58 14.4 45 45 WNW 6 9 29.80 1009 8 13 0.00 0.00
11:53 pm 23:53 Partly Cloudy 80 26.7 58 14.4 47 47 N 3 6 29.81 1010 8 13 0.00 0.00

Powered by AerisWeather